Theta_e
323 323 325 325 324 324 326 327 327 326 326 326 327 328 329 332 330 327 325 324 324 324 321 319 320 320 321 322 320 317 317 316 316 320 319 320 322 323 322 322 320 319 317 320
324 323 323 324 324 325 325 326 326 326 326 327 326 326 329 331 330 328 325 324 324 324 322 320 320 320 321 322 320 318 318 318 316 316 319 320 320 322 320 321 320 320 320 320
325 322 322 325 324 325 326 326 326 326 326 326 326 328 329 331 329 328 327 325 325 324 323 320 320 321 321 322 321 319 319 319 317 315 317 319 320 321 322 321 321 320 319 319
325 324 325 324 324 324 324 324 325 325 326 326 326 327 327 329 330 329 328 326 325 325 324 321 320 321 321 321 321 319 319 319 318 314 315 318 319 321 321 319 319 320 321 320
328 329 324 325 326 324 324 324 324 325 325 324 325 327 327 329 330 330 329 328 326 326 325 323 321 321 321 321 321 319 318 319 318 315 315 317 318 320 320 318 319 320 321 318
327 331 328 326 326 325 326 326 325 326 327 326 326 330 328 329 330 329 330 329 329 327 326 325 322 321 322 321 321 319 318 319 318 316 316 317 317 319 313 316 318 318 319 317
329 332 326 327 326 327 329 327 327 326 327 327 329 329 326 328 330 329 331 330 329 328 327 326 323 322 322 322 321 320 319 318 319 318 316 318 319 317 309 311 317 317 317 311
327 327 327 327 329 328 328 332 329 329 329 330 329 329 329 331 330 330 331 330 329 328 327 327 325 322 322 322 322 321 319 318 319 319 316 317 315 311 310 314 315 309 311 310
323 325 330 328 327 328 327 327 328 330 331 331 331 331 331 331 330 330 330 330 328 328 328 327 326 324 323 322 322 321 320 319 320 320 317 316 313 311 314 309 315 314 314 315
322 323 324 324 327 328 330 329 330 330 330 330 331 331 330 330 330 329 329 330 328 328 327 327 327 325 323 323 322 321 321 320 321 320 318 315 317 316 317 316 317 316 316 316
319 321 320 320 321 326 329 329 328 328 328 328 329 329 329 330 329 329 329 329 329 328 328 328 327 326 325 324 323 321 321 322 322 321 315 315 314 317 316 315 316 317 317 317
317 319 321 321 321 321 328 328 328 328 328 328 328 329 328 329 330 330 330 329 329 328 328 328 327 327 326 324 323 321 321 322 322 320 320 318 316 316 314 316 311 314 316 317
320 323 322 324 325 325 325 327 327 328 328 329 328 328 328 328 330 329 330 330 330 329 329 328 327 327 326 325 324 324 318 320 321 321 321 319 318 316 316 311 311 310 312 313
319 318 319 320 322 320 324 326 327 327 328 327 326 327 327 328 329 328 329 329 330 329 329 328 328 327 326 325 325 324 322 319 320 321 321 321 319 318 317 316 313 312 313 313
315 316 318 320 322 324 323 325 327 327 326 327 326 327 328 329 329 329 329 330 330 329 329 328 327 327 327 326 325 325 325 323 320 321 320 321 320 320 319 318 318 316 315 313
313 313 314 317 321 322 324 324 324 325 325 325 325 326 326 327 328 330 329 329 330 330 329 328 327 327 326 326 325 325 325 324 323 322 322 321 322 321 321 320 320 320 323 323
314 315 315 317 321 323 325 325 324 324 324 325 327 329 329 329 329 330 330 331 330 332 331 330 329 327 325 325 325 325 325 325 323 323 323 323 323 322 322 322 321 322 322 324
316 316 318 321 324 324 325 325 324 324 326 327 330 329 328 328 329 330 331 332 329 328 326 326 326 327 325 325 325 325 325 325 324 323 323 323 323 323 323 323 323 324 325 324
318 319 321 322 323 325 326 325 325 326 329 328 328 328 329 329 329 329 324 327 330 332 327 326 326 325 325 326 325 326 325 325 325 324 322 323 323 324 323 323 325 323 322 322
319 320 321 322 323 325 326 327 329 329 329 329 330 330 331 329 328 328 328 328 327 328 326 326 326 325 326 328 327 326 324 325 325 324 323 323 324 323 324 325 322 318 317 316
317 319 319 320 322 323 325 325 325 328 328 327 326 327 329 329 329 329 330 330 326 327 327 327 326 325 325 326 324 324 324 323 323 323 323 323 324 323 322 319 318 317 316 314
315 317 317 318 320 321 323 324 325 325 324 323 321 321 323 324 325 327 327 328 326 326 326 327 326 325 324 322 323 324 323 323 324 323 322 322 321 319 317 317 316 314 311 312
313 315 315 316 316 316 318 320 321 322 321 321 322 323 324 324 326 326 326 326 326 326 326 326 325 325 323 325 323 323 323 320 318 318 318 318 318 317 317 317 316 318 318 315
312 313 314 314 315 315 315 316 317 320 321 321 321 322 322 322 321 321 321 323 325 326 326 325 326 325 325 325 324 323 321 320 319 318 316 315 315 314 315 316 317 314 311 312
310 310 311 311 312 312 313 314 315 317 318 318 319 320 320 321 321 321 322 322 323 323 324 325 325 325 324 323 323 322 321 320 319 317 315 314 312 310 316 317 314 312 310 308
310 309 309 309 310 311 312 313 314 314 316 317 316 318 318 319 319 319 320 321 321 322 322 323 324 324 325 320 320 319 319 317 315 315 314 314 316 319 317 311 310 304 300 298
309 309 310 309 309 309 310 311 312 311 312 314 314 315 316 319 319 318 318 318 319 320 322 323 323 322 323 324 322 318 315 315 314 313 313 312 311 309 306 304 302 299 298 297
Wind_Speed
24 21 24 21 23 24 25 23 19 16 17 14 10 8 8 12 16 20 27 27 27 26 25 24 22 20 17 16 16 14 13 12 12 12 12 12 11 11 13 13 15 16 19 19
20 25 20 22 24 24 25 25 22 19 17 11 12 6 8 14 19 23 28 32 29 26 25 26 25 24 20 18 17 16 14 12 13 14 13 13 12 12 13 13 14 14 14 14
21 20 21 22 25 25 24 25 22 22 19 15 10 12 14 15 19 22 25 30 31 30 28 27 26 25 24 20 19 17 15 14 13 15 16 15 13 13 12 13 14 14 15 13
13 15 19 19 21 25 24 20 22 20 18 17 15 17 19 15 19 19 22 26 29 28 27 27 27 26 23 22 21 19 17 15 14 15 17 16 15 14 14 14 13 13 11 11
12 16 8 13 12 22 22 24 20 21 20 21 16 13 14 16 19 19 22 25 30 30 29 28 29 28 26 24 23 21 19 18 16 16 18 18 17 16 15 16 15 13 10 9
12 19 27 12 15 16 17 17 19 22 19 18 16 10 13 22 22 20 17 20 24 27 30 30 30 30 29 27 26 24 22 20 18 17 18 19 19 18 18 16 14 12 11 11
13 15 11 4 18 15 17 8 15 22 24 21 13 21 10 6 21 23 19 18 21 26 32 34 33 32 32 30 29 26 23 22 20 18 18 19 19 19 20 19 14 15 13 14
15 14 12 10 11 18 9 8 8 14 17 18 25 23 13 8 11 22 20 17 21 25 28 31 35 35 33 33 29 27 25 24 23 21 19 19 20 21 20 19 17 18 17 16
12 11 7 14 9 18 11 14 11 9 12 15 16 16 12 12 12 16 15 15 17 21 24 27 33 36 35 34 31 29 27 27 25 23 21 20 22 22 21 23 18 18 18 16
6 11 4 9 10 9 15 12 8 10 9 11 11 10 12 13 14 18 16 15 15 19 24 27 32 38 41 33 32 31 30 28 27 26 25 23 22 22 20 21 20 20 20 19
11 14 12 16 21 13 12 12 8 9 11 10 9 8 10 11 13 13 15 15 16 19 23 27 29 33 34 35 34 34 33 31 29 27 29 27 26 24 24 23 23 22 21 20
12 9 16 18 16 24 15 14 14 11 11 11 10 10 8 6 7 9 11 14 17 19 21 25 25 28 32 36 37 40 40 35 32 30 29 27 26 24 28 24 26 25 23 20
13 2 7 14 14 15 17 18 14 14 14 13 10 8 8 7 6 8 10 13 17 20 20 20 23 26 30 35 36 40 44 38 34 33 30 31 28 28 25 30 27 27 27 26
6 6 16 20 15 15 16 20 17 18 15 13 13 12 12 13 12 10 12 13 14 16 17 20 22 24 27 31 37 39 44 40 39 36 33 31 31 29 27 26 32 33 32 31
19 17 16 22 22 19 18 15 19 17 17 17 12 12 13 15 15 13 10 10 13 12 13 18 20 21 24 28 34 35 38 39 41 35 36 33 31 30 28 27 25 24 29 32
22 21 20 23 26 24 21 21 24 21 19 14 12 15 16 17 16 16 10 7 9 13 14 14 16 17 20 25 28 30 35 39 37 37 30 32 30 29 28 28 26 25 23 23
18 22 22 26 25 25 24 23 25 26 24 21 17 14 12 13 17 15 11 10 11 10 11 11 13 15 18 22 26 27 28 31 41 39 34 32 30 29 26 26 26 25 23 25
19 21 21 20 18 23 26 25 22 20 24 23 20 16 14 12 11 11 11 9 9 12 15 12 8 14 18 19 22 21 23 25 26 34 33 32 31 30 28 26 25 24 28 31
15 17 18 19 19 20 21 22 22 25 25 22 18 14 12 10 9 9 11 10 10 10 14 17 18 12 12 14 20 21 21 23 25 26 34 32 31 30 29 28 25 25 28 25
8 12 12 12 12 13 17 17 21 23 21 19 17 14 11 10 10 8 8 9 11 14 14 17 19 20 20 17 18 20 22 22 22 21 26 29 28 29 27 28 24 21 24 25
12 14 16 19 19 16 14 14 14 18 22 22 20 16 14 11 9 8 5 3 5 7 7 11 13 16 18 18 21 18 21 21 22 22 25 26 27 27 27 26 26 27 26 26
12 17 24 27 27 24 21 21 16 7 16 23 23 20 18 15 12 9 7 6 6 7 6 3 3 8 9 15 14 16 21 22 21 23 28 33 34 32 33 33 35 32 31 34
16 23 28 29 28 25 28 24 8 4 12 21 20 16 15 13 12 10 10 13 12 12 10 8 8 10 12 9 10 13 15 20 24 24 29 33 34 38 37 38 36 41 43 42
21 26 26 22 24 17 21 10 9 9 11 16 14 13 10 10 13 12 10 8 6 2 2 5 6 6 11 10 11 12 14 16 19 22 25 26 32 32 38 47 48 47 44 39
23 23 20 17 16 14 9 7 9 8 10 12 12 9 10 13 10 12 9 8 6 4 5 7 7 6 7 10 11 12 14 17 21 24 26 27 30 34 44 44 41 41 37 35
21 19 18 19 16 12 10 9 9 8 6 5 7 8 9 12 11 8 8 8 7 5 4 5 6 8 8 9 12 15 16 21 23 24 27 34 39 38 38 35 36 35 32 36
21 20 20 20 18 17 15 13 10 8 8 7 6 5 6 8 7 5 5 8 9 9 9 10 9 7 6 8 12 18 18 18 20 23 24 26 28 30 33 34 35 36 35 34
Wind_Direction
224 215 201 208 214 213 218 219 231 232 234 236 240 209 218 189 181 179 179 184 185 186 185 184 182 184 184 180 174 167 158 153 157 155 145 140 131 128 121 118 114 112 111 109
212 220 210 214 218 212 217 221 228 238 251 222 242 264 191 186 185 188 187 191 189 186 185 185 184 182 183 182 179 172 166 161 160 164 158 157 150 143 136 129 126 128 124 120
219 216 222 226 216 214 219 224 226 230 234 245 230 233 212 195 194 194 196 193 191 189 186 187 186 183 184 181 180 178 173 169 167 169 169 165 163 159 153 148 138 133 130 128
204 199 209 242 216 220 222 225 225 238 236 234 229 230 228 203 198 196 196 198 196 194 189 187 185 185 185 182 181 181 179 178 174 172 175 174 172 171 172 166 160 156 148 144
207 205 219 192 206 211 216 232 220 223 224 234 230 240 246 222 207 199 199 200 196 195 190 186 185 184 184 185 185 183 185 184 180 176 178 181 181 183 182 181 179 177 175 176
209 195 219 186 170 200 212 227 211 218 221 229 224 220 232 201 206 204 197 197 194 190 187 186 186 185 184 188 189 188 187 185 183 181 180 183 186 190 194 191 187 184 188 188
189 215 226 264 179 171 193 197 193 211 219 224 215 225 247 217 202 204 197 194 193 185 188 192 185 185 188 190 193 191 185 184 184 183 181 182 184 190 193 190 192 187 192 193
203 205 214 164 154 194 190 107 178 206 217 213 217 226 218 211 204 196 199 203 196 191 188 188 187 188 190 195 193 190 188 184 184 185 179 182 184 186 189 189 191 191 188 185
204 203 93 169 195 201 191 212 215 208 196 204 215 219 202 205 184 191 195 199 195 197 191 189 189 193 194 196 191 189 190 187 186 186 183 186 184 184 183 186 186 185 186 186
252 219 203 223 237 216 211 223 207 197 194 199 200 203 206 202 198 201 197 201 200 195 195 194 194 197 206 192 189 190 192 192 188 187 187 188 187 190 187 190 187 188 188 188
252 259 266 229 249 243 232 221 203 194 191 193 196 196 186 181 189 197 199 212 216 207 201 200 199 201 197 195 190 192 193 194 193 192 193 194 192 194 194 200 195 192 193 191
233 248 248 236 233 243 232 227 218 204 188 186 179 183 187 182 185 195 206 214 215 210 205 201 202 203 199 197 195 194 194 196 198 196 197 198 197 199 202 200 205 199 198 195
265 54 297 267 283 280 268 230 217 209 199 185 185 200 211 211 218 212 208 213 213 215 209 204 200 200 199 196 199 200 203 199 201 199 203 200 202 202 205 207 210 209 212 211
223 298 271 259 254 254 247 245 241 223 212 205 218 223 228 229 215 217 212 211 213 215 213 210 205 204 200 201 200 205 208 207 203 205 205 206 207 207 206 207 211 212 214 218
246 248 263 278 278 271 255 251 218 212 214 216 217 222 224 220 211 197 188 195 207 207 211 211 210 207 202 203 203 205 208 208 208 208 206 210 208 210 210 209 210 210 219 221
248 250 245 259 269 257 248 239 221 224 223 220 219 220 221 221 212 201 203 209 197 207 206 211 210 207 203 204 206 209 210 210 214 210 213 211 212 213 212 211 210 208 208 218
252 246 247 251 254 251 242 231 226 232 232 221 201 194 197 207 203 204 213 215 208 207 205 210 209 203 200 202 204 209 211 213 210 211 212 213 211 214 213 213 211 210 212 212
250 243 248 252 255 245 241 236 233 232 213 190 185 189 187 197 194 195 204 212 214 212 215 213 213 197 194 196 197 199 207 208 212 212 211 212 213 213 211 209 211 205 201 211
230 234 239 241 244 239 234 225 218 203 188 172 172 178 185 186 199 206 221 221 223 219 235 223 214 222 206 212 217 205 208 201 206 200 207 208 206 209 213 211 199 192 200 197
207 212 210 204 200 207 194 188 182 178 160 154 149 150 154 165 186 193 196 200 209 213 243 232 215 212 217 213 214 202 203 199 201 195 194 203 198 194 197 191 181 175 166 162
107 128 135 121 119 126 145 158 172 152 141 138 135 140 138 137 138 127 127 176 185 184 213 227 210 215 214 216 200 195 196 195 194 188 187 183 181 174 176 173 167 164 159 153
91 110 100 97 97 94 101 107 101 151 135 129 124 119 115 110 109 115 122 114 118 124 123 133 200 199 180 159 177 188 180 172 179 178 178 180 179 176 166 170 173 166 155 152
85 95 93 95 95 96 102 100 103 154 132 116 115 113 114 116 118 109 98 106 93 84 86 91 118 130 148 145 162 172 178 175 185 186 190 190 185 184 185 184 177 164 161 159
79 85 88 90 95 100 110 163 166 138 107 107 115 117 118 126 123 119 118 123 126 123 119 114 114 123 124 136 146 156 164 164 162 168 173 170 177 175 172 165 160 161 161 162
86 85 84 101 120 101 106 109 103 96 112 135 145 141 146 139 146 135 143 142 143 143 169 175 158 145 127 131 141 147 152 155 159 161 159 158 157 160 160 161 163 165 161 160
66 74 77 80 87 94 93 87 81 86 111 137 136 145 146 141 143 141 146 154 162 165 164 159 170 180 177 145 142 144 147 160 153 150 153 157 160 164 165 163 164 157 157 154
63 63 59 56 48 47 56 66 75 72 79 86 100 121 158 178 173 177 187 179 167 157 157 155 155 163 158 169 185 173 155 151 156 154 155 156 159 157 159 160 157 155 152 155